星链-35973(STARLINK-35973)

导读

STARLINK-35973是美国SpaceX星链星座的成员卫星,于2025年11月23日发射升空。星链计划旨在构建覆盖全球的低轨卫星互联网星座,为全球偏远地区、海陆空移动场景提供高速低延迟宽带服务。该卫星加入后,进一步扩充了星链星座的部署规模,提升全球网络覆盖的稳定性与服务能力,是SpaceX星链组网进程中的新增节点。

基本信息
目录编号:
66632
目录名称:
STARLINK-35973
国际标识:
2025-271R
轨道中心:
EARTH
卫星名称:
星链-35973
卫星全名:
星链-35973(STARLINK-35973)
卫星状态:
在轨 (已飞行202 天)
发射日期:
2025-11-23 UTC
国别 :
美国 (US)
星等 :
--
轨道信息
数据来源 国际轨道数据
星历时间: 2026-06-12T07:43:58+0800
1天前
查看轨道信息
半长轴: 6840.807km
偏心率: 0.0000967
轨道倾角: 53.160°
近地点辐角 71.722°
升交点赤经 59.853°
平近点角 288.389°
近地点: 462.008km
远地点: 463.332km
周期: 93.847分钟
每日圈数: 15.344114
详细信息
固有亮度:
5
最大亮度:
2.5
卫星平台:
Starlink V1.0
覆盖范围:
全球
运营商:
太空探索技术公司
运营商所在国:
美国
制造商(研发单位):
太空探索技术公司
制造商所在国:
美国
使用方式:
暂无
卫星简介
Starlink 计划是 SpaceX 推出的全球卫星互联网项目,通过发射低轨道卫星,为全球尤其是偏远地区提供高速、低延迟的互联网服务。自 2019 年起,Starlink 已部署数千颗卫星,旨在缩小全球数字鸿沟,推动互联网普及。该项目还为军事、航空等行业提供通信支持,带来广泛经济效益。
2D轨道图
3D轨道图
轨道高度分析图
轨道倾角分析图
轨道综合分析图
查看轨道综合分析图